Regional Weather Roundup
Issued by NWS Green Bay, WI

Home | Current Version | Previous Version | Graphics & Text | Print | Product List | Glossary Off
Versions: 1 2 3 4 5 6 7 8 9 10 11 12 13 14 15 16 17 18 19 20 21 22 23 24 25 26 27 28 29 30 31 32 33 34 35 36 37 38 39 40 41 42 43 44 45 46 47 48 49 50

000
ASUS43 KGRB 261700
RWRGRB

NORTH-CENTRAL AND NORTHEAST WISCONSIN REGIONAL WEATHER ROUNDUP
NATIONAL WEATHER SERVICE GREEN BAY WI
1200 PM CDT FRI MAY 26 2017

WIZ005-009-010>012-018-019-261800-
NORTH CENTRAL WISCONSIN

CITY           SKY/WX    TMP DP  RH WIND       PRES   REMARKS
IRONWOOD       CLOUDY    65  53  65 S7        29.79R
MANITOWISH WTR NOT AVBL
ARBOR VITAE    NOT AVBL
EAGLE RIVER    NOT AVBL
LAND O LAKES   NOT AVBL
RHINELANDER    CLOUDY    67  54  63 S7        29.83S
PHILLIPS       NOT AVBL
ANTIGO         NOT AVBL
TOMAHAWK       NOT AVBL
MERRILL        NOT AVBL
$$

WIZ013-073-261800-
NORTHEAST WISCONSIN

CITY           SKY/WX    TMP DP  RH WIND       PRES   REMARKS
IRON MOUNTAIN  PTSUNNY   67  51  56 SE6       29.82S
MARINETTE      MOSUNNY   64  53  67 SE8       29.85S
$$

WIZ017-030-035>037-045-261800-
CENTRAL WISCONSIN

CITY           SKY/WX    TMP DP  RH WIND       PRES   REMARKS
MEDFORD        NOT AVBL
WAUSAU         CLOUDY    66  55  67 S8        29.81R
MOSINEE        PTSUNNY   64  57  77 SE8       29.83S
MARSHFIELD     CLOUDY    69  56  62 S10       29.80S
WISC RAPIDS    PTSUNNY   71  56  58 S8        29.82S
STEVENS POINT  NOT AVBL
WAUPACA        NOT AVBL
SHAWANO        NOT AVBL
CLINTONVILLE   NOT AVBL
WAUTOMA        CLOUDY    70  56  61 S8        29.82S
$$

WIZ038-039-048-051-261800-
FOX VALLEY

CITY           SKY/WX    TMP DP  RH WIND       PRES   REMARKS
NWS GREEN BAY  MOSUNNY   68  58  70 SE5       29.83F
APPLETON       PTSUNNY   64  50  59 E8        29.83S
OSHKOSH        MOSUNNY   65  55  70 E8        29.82F
FOND DU LAC    MOSUNNY   68  54  60 SE12      29.83F
$$

WIZ022-050-052-261800-
EAST CENTRAL WISCONSIN

CITY           SKY/WX    TMP DP  RH WIND       PRES   REMARKS
EPHRAIM        NOT AVBL
WASHINGTON ISL NOT AVBL
STURGEON BAY   MOSUNNY   64  52  64 E9        29.86R
MANITOWOC      NOT AVBL
SHEBOYGAN      CLOUDY    61  55  81 S6        29.86F
$$

LMZ563-521-522-541>543-261800-
LAKESHORE

STATION/POSITION TIME  TEMP    WIND        PRES    VSBY  WAVE
                       AIR SEA DIR/SP/G                  HT/PER
                 (UTC) (F)     (DEG/KT/KT) (MB)    (MI)  (FT/S)
SHEBOYGAN LKSHOR 1600   48     160/  4/  4 1011.7R
KEWAUNEE LKSHORE 1630   48     170/  8/  8 1011.1R
NORTHPORT PIER   1640   51     110/  6/  7 1010.8F
N MID LAKE BUOY  1550   46 44  220/  4/  4 1012.0R         0
CHAMBERS ISLAND  1640   60     350/  4/  6 1010.5S
MENOMINEE LKSHOR 1624          130/  6/  7 1010.1
$$




USA.gov is the U.S. government's official web portal to all federal, state and local government web resources and services.